Regional Weather Roundup
Issued by NWS

Home | Current Version | Previous Version | Text Only | Print | Product List | Glossary Off
Versions: 1 2 3 4 5 6 7 8 9 10 11 12 13 14 15 16 17 18 19 20 21 22 23 24 25 26 27 28 29 30 31 32 33 34 35 36 37 38 39 40 41 42 43 44 45 46 47 48 49 50

000
ASUS43 KOAX 261310
RWRNE

WEATHER ROUNDUP FOR NEBRASKA
NATIONAL WEATHER SERVICE OMAHA NE
700 AM CST FRI DEC 26 2014

NOTES: SATELLITE DATA IS BEING USED TO AUGMENT CLOUD COVER ABOVE
       12000 FEET.
       "FAIR" INDICATES FEW OR NO CLOUDS BELOW 12,000 FEET WITH NO
       SIGNIFICANT WEATHER AND/OR OBSTRUCTIONS TO VISIBILITY.

  * THESE STATIONS DO NOT REPORT WEATHER SUCH AS RAIN...SNOW OR FOG.

NEZ001>004-019>022-054>056-261400-
NEBRASKA PANHANDLE

CITY           SKY/WX    TMP DP  RH WIND       PRES   REMARKS
SCOTTSBLUFF    LGT SNOW  18  14  84 CALM      30.00S FOG
ALLIANCE       CLOUDY    17  14  88 N13       29.98S WCI   4
CHADRON        LGT SNOW  20  17  88 NE9       30.04R FOG     WCI   9
KIMBALL        FLURRIES  16  14  93 N9        29.91R WCI   4
SIDNEY         LGT SNOW  17  14  88 N12       29.96R FOG     WCI   4
$$

NEZ057>060-069>072-079>082-261400-
SOUTHWEST NEBRASKA

CITY           SKY/WX    TMP DP  RH WIND       PRES   REMARKS
NORTH PLATTE   CLOUDY    24  19  81 N18G25    29.97R WCI  10
IMPERIAL       CLOUDY    23  18  81 N20       29.97R WCI   8
LEXINGTON      CLOUDY    27  22  81 N15G25    29.97R WCI  15
MCCOOK         CLOUDY    26  21  81 N21       29.95R WCI  12
OGALLALA       CLOUDY    23  18  81 N14G24    29.98R WCI  10
$$

NEZ005>010-023>029-035>040-094-261400-
NORTH CENTRAL NEBRASKA

CITY           SKY/WX    TMP DP  RH WIND       PRES   REMARKS
VALENTINE      CLOUDY    22  18  85 N13       30.04R WCI  10
AINSWORTH      CLOUDY    22  20  93 N15       30.01R WCI   9
BROKEN BOW     CLOUDY    25  21  85 N21G28    29.98R WCI  11
O`NEILL        CLOUDY    26  25  95 N17       29.99S WCI  13
ORD            CLOUDY    26  20  77 N21       29.98R WCI  12
THEDFORD       CLOUDY    24  20  87 N13G21    30.00R WCI  12
$$

NEZ041-046>049-061>064-073>077-083>087-261400-
SOUTH CENTRAL NEBRASKA

CITY           SKY/WX    TMP DP  RH WIND       PRES   REMARKS
GRAND ISLAND   CLOUDY    27  24  89 N17       29.98R WCI  14
AURORA         CLOUDY    28  26  91 N16G22    29.97R WCI  17
HASTINGS       CLOUDY    27  23  85 N20       29.94R WCI  13
HEBRON         CLOUDY    31  27  85 N16G24    29.93R WCI  20
HOLDREGE       CLOUDY    27  23  85 N22G30    29.93S WCI  12
KEARNEY *      CLOUDY    27  21  80 N22       29.96R WCI  12
YORK           CLOUDY    28  27  93 N22G28    29.95R WCI  15
$$

NEZ011>018-030>034-042>045-261400-
NORTHEAST NEBRASKA

CITY           SKY/WX    TMP DP  RH WIND       PRES   REMARKS
NORFOLK        CLOUDY    28  26  92 N16       29.96R WCI  16
ALBION         CLOUDY    27  24  85 N16G24    29.96S WCI  15
BLAIR          CLOUDY    33  32  95 N18G25    29.90R FOG     WCI  22
COLUMBUS *     CLOUDY    28  21  74 N16       29.97R WCI  17
FREMONT        CLOUDY    32  31  95 N10G16    29.95R WCI  24
TEKAMAH        CLOUDY    33  31  92 N17       29.94R WCI  22
WAYNE          CLOUDY    30  27  89 N14G26    29.96R WCI  19
$$

NEZ050>053-065>068-078-088>093-261400-
SOUTHEAST NEBRASKA

CITY           SKY/WX    TMP DP  RH WIND       PRES   REMARKS
LINCOLN        CLOUDY    32  29  88 N16       29.95R WCI  21
OMAHA EPPLEY   CLOUDY    34  32  92 N15       29.92R WCI  24
BEATRICE       CLOUDY    32  30  93 N15G24    29.91R WCI  22
FALLS CITY     CLOUDY    32  30  92 N10       29.90R FOG     WCI  24
NEBRASKA CITY  CLOUDY    33  33 100 N9G16     29.91R FOG     WCI  25
PLATTSMOUTH    CLOUDY    33  31  92 N10G16    29.91R FOG     WCI  25
$$

NEZ044-045-051>053-067-261400-
OMAHA AREA

CITY           SKY/WX    TMP DP  RH WIND       PRES   REMARKS
OMAHA EPPLEY   CLOUDY    34  32  92 N15       29.92R WCI  24
BLAIR          CLOUDY    33  32  95 N18G25    29.90R FOG     WCI  22
FREMONT        CLOUDY    32  31  95 N10G16    29.95R WCI  24
MILLARD        CLOUDY    34  32  91 N9        29.93R FOG     WCI  27
OFFUTT AFB     CLOUDY    34  31  89 N12       29.91R WCI  25
PLATTSMOUTH    CLOUDY    33  31  92 N10G16    29.91R FOG     WCI  25
WAHOO          CLOUDY    32  29  89 N20       29.94R WCI  20
$$


USA.gov is the U.S. government's official web portal to all federal, state and local government web resources and services.